Regional Weather Roundup
Issued by NWS New Orleans/Baton Rouge, LA

Home | Current Version | Previous Version | Graphics & Text | Print | Product List | Glossary On
Versions: 1 2 3 4 5 6 7 8 9 10 11 12 13 14 15 16 17 18 19 20 21 22 23 24 25 26 27 28 29 30 31 32 33 34 35 36 37 38 39 40 41 42 43 44 45 46 47 48 49 50
407
ASUS44 KLIX 221605
RWRLIX
NEW ORLEANS REGIONAL WEATHER ROUNDUP
NATIONAL WEATHER SERVICE NEW ORLEANS LA
1000 AM CST MON DEC 22 2014

NOTE: "FAIR" INDICATES FEW OR NO CLOUDS BELOW 12,000 FEET WITH NO
      SIGNIFICANT WEATHER AND/OR OBSTRUCTIONS TO VISIBILITY.
      SKY/WX - SKY CONDITION AND SIGNIFICANT WEATHER.
      TMP - AIR TEMPERATURE.     DP    - DEWPOINT TEMPERATURE.
      RH  - RELATIVE HUMIDITY.   PRES  - PRESSURE.
      HI  - HEAT INDEX.          WCI   - WIND CHILL INDEX.

*  THESE STATIONS ARE NOT NWS OR FAA STATIONS AND ARE NOT UNDER
   NWS QUALITY CONTROL.

LAZ038-040-048-061>063-065>067-069-221700-
SOUTHEAST LOUISIANA

CITY           SKY/WX    TMP DP  RH WIND       PRES   REMARKS
N.O. AUDUBON     N/A     64  64  98 MISG        N/A
N.O. INTL ARPT PTSUNNY   66  62  87 SE8       29.83S FOG
N.O. LAKEFRONT CLOUDY    66  62  87 SE8       29.83F
N.O. DOWNTOWN* CLOUDY    64  59  82 S3        29.84S
SLIDELL        CLOUDY    65  62  90 SE7       29.83F
BATON ROUGE    FOG       60  59  96 SE7       29.81F VSB 1
BOOTHVILLE     CLOUDY    69  68  96 S6        29.86S FOG
BELLE CHASSE   CLOUDY    65  63  93 VRB5      29.83F FOG
BOGALUSA*        N/A     63  60  90 SE5       29.85F
GALLIANO*      MOSUNNY   70  66  89 MISG      29.84F
NEW ROADS*     FOG       59  58  98 SE5       29.81F VSB 1/4
GONZALES*      CLOUDY    61  61 100 MISG      29.82S FOG
HAMMOND*       NOT AVBL
HOUMA*         MOSUNNY   70  66  88 SE9       29.82F FOG
PORT FOURCHON* MOSUNNY   72  68  88 S12G18    29.87F

$$

MSZ070-080>082-221700-
SOUTHERN MISSISSIPPI

CITY           SKY/WX    TMP DP  RH WIND       PRES   REMARKS
MCCOMB         FOG       59  58  96 SE7       29.83S VSB 1/2
GULFPORT       CLOUDY    62  61  96 SE8       29.85S
BILOXI         NOT AVBL
PASCAGOULA     CLOUDY    64  62  93 VRB3      29.86F FOG
STENNIS ARPT*  DRZL/FOG  61  57  88 E5        29.85S VSB 1

$$

COASTAL OBSERVATIONS
LAKE AND NEARSHORE STATIONS

STATION/POSITION TIME  TEMP    WIND        PRES    WAVE
                       AIR SEA DIR/SP/G            HT/PER
                 (UTC) (F)     (DEG/KT/KT) (MB)    (FT/S)
PASCAGOULA       1600   63      60/  7/  8 1010.6
WAVELAND YACHT   1600   60     310/  1/  3 1010.1
GRAND ISLE       1600   67 60  180/  3/  5 1011.2
SOUTHWEST PASS   1600   65                 1011.4
NEW CANAL        1600   62 56  140/  1/  4 1010.5
SHELL BEACH      1600   59 57  270/  4/  5 1010.7

OFFSHORE STATIONS

STATION/POSITION TIME  TEMP    WIND        PRES    WAVE
                       AIR SEA DIR/SP/G            HT/PER
                 (UTC) (F)     (DEG/KT/KT) (MB)    (FT/S)
64 S DAUPHIN ISL 1600   73 74  190/ 10/ 12 1010.9    2/ 4

$$




USA.gov is the U.S. government's official web portal to all federal, state and local government web resources and services.